Beaufort MCAS, SC

6:05 AM EDT on April 24, 2018 (GMT -0400)
Beaufort Marine Corps Air Station

Weather History for KNBC - September, 2012

Change the Weather History Date:

Saturday, September 22, 2012

  Actual Average Record
Temperature  
Mean Temperature 76 °F -  
Max Temperature 88 °F 84 °F 93 °F (1936)
Min Temperature 64 °F 67 °F 50 °F (1976)
Cooling Degree Days 10    
Growing Degree Days 26 (Base 50)    
Moisture  
Dew Point 66 °F    
Average Humidity 74    
Maximum Humidity 97    
Minimum Humidity 44    
Precipitation  
Precipitation 0.00 in - - ()
Sea Level Pressure  
Sea Level Pressure 30.02 in    
Wind  
Wind Speed 2 mph (SW)    
Max Wind Speed 8 mph    
Max Gust Speed -    
Visibility 10 miles    
Events      
Averages and records for this station are not official NWS values.
T = Trace of Precipitation, MM = Missing Value Source: NWS Daily Summary

Daily Weather History Graph

Daily Weather History Graph

Search for Another Location

Airport or City:

Astronomy

Sep. 22, 2012 Rise Set
Actual Time 7:11 AM EDT 7:18 PM EDT
Civil Twilight 6:46 AM EDT 7:43 PM EDT
Nautical Twilight 6:18 AM EDT 8:11 PM EDT
Astronomical Twilight 5:49 AM EDT 8:40 PM EDT
Moon 2:08 PM EDT (9/22) No Moon Set
Length of Visible Light 12h 56m
Length of Day
12h 07m
Waxing Crescent, 48% of the Moon is Illuminated
Sep 22
Waxing Crescent
Sep 22
First Quarter
Sep 29
Full
Oct 8
Last Quarter
Oct 15
New

Hourly Weather History & Observations

Time (EDT) Temp. Heat Index Dew Point Humidity Pressure Visibility Wind Dir Wind Speed Gust Speed Precip Events Conditions
12:56 AM 68.0 °F - 64.9 °F 90% 30.03 in 10.0 mi Calm Calm - N/A   Clear
1:56 AM 68.0 °F - 64.9 °F 90% 30.03 in 10.0 mi Calm Calm - N/A   Clear
2:56 AM 68.0 °F - 64.9 °F 90% 30.03 in 10.0 mi Calm Calm - N/A   Clear
3:56 AM 66.9 °F - 64.9 °F 93% 30.02 in 10.0 mi Calm Calm - N/A   Clear
4:56 AM 68.0 °F - 64.9 °F 90% 30.02 in 10.0 mi Calm Calm - N/A   Clear
5:56 AM 69.1 °F - 64.9 °F 87% 30.03 in 10.0 mi North 3.5 mph - N/A   Clear
6:56 AM 66.9 °F - 64.0 °F 90% 30.04 in 10.0 mi Calm Calm - N/A   Clear
7:56 AM 64.9 °F - 64.0 °F 97% 30.06 in 4.0 mi Calm Calm - N/A   Clear
8:56 AM 70.0 °F - 66.0 °F 87% 30.06 in 10.0 mi NNW 3.5 mph - N/A   Clear
9:56 AM 78.1 °F - 68.0 °F 71% 30.06 in 10.0 mi Calm Calm - N/A   Clear
10:56 AM 81.0 °F 82.7 °F 64.9 °F 58% 30.06 in 10.0 mi Calm Calm - N/A   Clear
11:56 AM 82.9 °F 84.6 °F 64.9 °F 54% 30.06 in 10.0 mi West 5.8 mph - N/A   Clear
12:56 PM 84.9 °F 86.1 °F 64.0 °F 49% 30.04 in 10.0 mi NNW 6.9 mph - N/A   Partly Cloudy
1:56 PM 87.1 °F 88.3 °F 64.0 °F 46% 30.02 in 10.0 mi West 6.9 mph - N/A   Partly Cloudy
2:56 PM 87.1 °F 87.8 °F 63.0 °F 44% 29.99 in 10.0 mi Variable 3.5 mph - N/A   Clear
3:56 PM 84.0 °F 87.0 °F 68.0 °F 58% 29.98 in 10.0 mi SSE 5.8 mph - N/A   Scattered Clouds
4:56 PM 84.0 °F 87.0 °F 68.0 °F 58% 29.97 in 10.0 mi South 4.6 mph - N/A   Clear
5:56 PM 82.0 °F 84.9 °F 68.0 °F 62% 29.98 in 10.0 mi South 8.1 mph - N/A   Clear
6:56 PM 80.1 °F 82.3 °F 66.9 °F 64% 29.99 in 10.0 mi South 4.6 mph - N/A   Clear
7:56 PM 77.0 °F - 66.9 °F 71% 29.99 in 10.0 mi SSW 3.5 mph - N/A   Clear
8:56 PM 75.0 °F - 68.0 °F 79% 30.01 in 10.0 mi SSW 5.8 mph - N/A   Clear
9:56 PM 77.0 °F - 68.0 °F 74% 30.02 in 10.0 mi SSW 4.6 mph - N/A   Clear
10:56 PM 73.9 °F - 68.0 °F 82% 30.02 in 10.0 mi SSW 4.6 mph - N/A   Clear
11:56 PM 73.0 °F - 68.0 °F 84% 30.02 in 10.0 mi SW 4.6 mph - N/A   Clear